Vertical_Velocity
-11 -8 -18 11 4 2 67 23 21 -11 7 0 -4 -37 4 13 6 5 2 1 3 4 -2 -5 -2 -1 14 -4 -2 -2 -4 6 3 -20 1 -10 22 -2 1 14 -7 -6 5 -45
0 2 9 -3 51 28 21 17 23 15 11 -17 -18 5 -9 11 5 9 -5 -6 3 3 2 -4 -3 2 -1 1 -2 2 -4 1 1 5 -0 -1 -11 -5 -0 7 21 -14 11 -11
2 -3 -4 3 -23 58 35 25 13 21 3 13 -8 -5 -9 -10 -5 8 -2 0 -1 -3 0 -2 5 2 -0 0 0 2 4 -1 -2 -5 16 3 1 1 8 5 13 -12 -13 -9
-1 23 0 6 -12 81 22 13 8 -1 -16 -17 -18 15 6 3 -2 -8 8 -2 -1 -1 2 -0 -6 -1 1 -8 -3 -3 -2 -6 3 -2 -3 10 3 0 6 8 -6 15 -22 -1
-7 -6 18 11 7 22 44 -13 -18 -16 -7 19 10 6 -11 4 1 3 -5 -5 4 5 -9 -13 -2 4 6 -5 -6 2 -4 -17 -4 -13 1 -3 -2 -11 4 -6 -4 -0 -5 -35
-1 -6 0 0 2 33 13 -4 -7 11 -2 -4 12 -30 -7 -7 24 14 -2 2 12 5 -10 11 3 10 1 1 0 3 4 1 4 -24 9 5 9 -19 -12 -4 6 -5 -3 -29
-1 24 11 -19 13 36 -0 3 0 14 -4 5 -32 -9 4 -1 12 -3 -0 -5 4 -1 3 2 3 -3 -3 -5 -4 2 3 1 9 -18 10 9 -34 4 4 4 -16 4 -1 -6
-3 7 -1 22 22 25 20 7 4 -6 8 3 11 -9 -3 10 0 -8 3 -3 1 3 13 1 -2 -5 -4 -15 -8 -8 -7 4 4 2 2 -19 -12 7 -3 -1 -33 8 -10 -3
7 -11 -8 8 15 23 24 -5 3 9 -2 -6 9 6 -1 -5 -2 3 -6 -1 4 1 12 2 -3 -2 -6 8 0 3 12 5 21 9 10 -0 -20 5 -3 11 -34 -2 5 7
15 20 19 26 21 15 10 -5 -8 15 -0 -8 -5 -7 -13 0 -1 3 -1 -3 -5 6 2 -1 -2 -11 5 -1 -0 1 -2 4 -8 -1 -2 -16 -4 -4 13 5 -16 -0 -2 -3
-8 -16 5 -7 3 -2 -8 -3 6 8 6 9 2 -9 -10 -8 -5 1 2 3 3 7 5 -2 -6 -8 -13 5 -6 -8 2 8 4 15 8 2 4 -1 -5 -2 0 -1 -3 -1
15 8 9 5 3 -9 -6 3 1 -9 1 -0 -2 -7 -9 -4 -7 1 4 -4 7 7 9 -0 10 -6 -2 4 -10 15 -4 -25 2 1 3 -4 -2 -4 3 2 1 -1 -4 2
6 -2 8 3 2 -3 3 -7 -7 -3 -2 2 -2 -2 5 -10 -4 -2 5 5 0 -2 3 4 7 0 7 -0 -12 1 -3 3 -3 12 -9 3 -0 -2 4 -4 -8 5 2 -2
1 0 -3 -3 2 -3 5 0 -3 -6 -4 -7 -4 -11 -19 -1 -15 -3 1 3 1 1 -0 -2 5 17 6 -2 5 -2 9 -2 -1 -8 -5 1 5 6 0 6 7 3 -2 1
-2 -4 -2 -2 -1 -2 -1 5 2 -2 -3 1 -4 -3 -5 2 -2 -2 2 -2 1 -2 -2 2 -6 1 0 -2 -1 -8 -8 -1 -6 9 1 7 0 -0 -1 0 2 1 1 -3
-4 -2 -1 0 2 -1 11 -7 -7 -3 -5 2 -4 19 3 4 3 -2 -5 -0 -1 2 -2 0 -4 -4 -0 15 2 -2 1 1 -2 -5 2 -0 -1 1 1 1 1 1 0 -0
3 2 2 2 -3 1 -2 -3 -2 1 0 -0 -6 5 4 6 1 -0 2 5 -6 0 -0 -8 -0 -2 12 6 -2 -6 -3 1 1 1 -0 -1 1 -2 -0 0 -1 1 -1 0
1 1 4 9 6 -0 -12 2 5 3 -3 3 -8 -8 -14 3 -4 1 0 0 4 1 -2 -2 5 -4 2 -1 -5 -1 0 1 -1 -1 -0 -1 -1 -1 0 1 1 0 0 1
1 1 4 5 -2 -10 0 -4 23 10 2 -4 -5 3 12 11 6 7 3 12 24 10 -3 4 -1 10 4 -2 -0 -1 -1 -1 -0 0 -1 -1 -0 -0 -1 -0 0 0 1 1
1 -1 -6 -7 -10 5 -2 -7 7 6 11 -1 4 2 14 17 11 8 6 4 2 1 1 -3 -1 4 -1 0 -1 -1 -1 -0 -1 -1 1 1 0 1 0 0 -1 -1 1 2
-1 -2 8 -1 -6 8 11 8 0 -1 14 11 -5 -3 9 15 4 0 -2 3 -2 0 -1 0 3 1 -4 -0 -2 -1 -2 -1 -1 -1 -1 -1 -1 -0 -0 0 0 -0 1 0
-4 5 2 0 4 5 4 2 2 -0 5 -1 1 -1 5 -3 -8 -7 -1 -2 -1 2 -1 -1 -0 -7 -2 -1 -2 -1 -2 -1 -0 -0 -0 -0 -0 -0 -0 -1 -1 0 -0 0
-1 5 2 0 -1 -0 1 -0 1 3 1 -1 -3 -4 -2 5 -1 -0 -0 -1 -1 -0 1 -0 -4 -2 -1 0 0 -1 -1 -1 -0 -1 -1 -1 -1 -0 0 1 2 0 0 1
4 1 -2 -4 2 3 3 -2 -3 -1 0 0 2 -0 -2 -3 -2 0 0 -0 -0 1 0 1 -1 -1 -1 -1 -1 -0 -0 -0 -1 -1 -1 -1 -1 -1 -1 -1 -0 1 2 2
-6 -6 -3 -0 2 2 2 2 2 1 -1 -1 1 3 -1 -2 0 1 0 0 0 -1 -0 -2 -1 -1 -0 -1 -1 -1 -1 0 0 0 0 0 -1 -1 -1 -2 -0 1 2 1
-1 -3 -2 -1 -0 -1 -2 -1 -0 1 -0 -3 -1 -1 -0 -1 0 0 -0 -0 0 -2 -2 -1 -1 -1 -1 -1 -0 -0 -0 -0 -0 -1 -1 -0 -3 -4 -2 -0 -0 -1 0 1
5 5 6 3 -2 -3 -2 -1 -1 1 1 -1 1 -0 -2 -0 -1 -1 -1 -2 -1 -1 -1 -1 -1 -1 -0 0 0 0 0 -1 -1 -1 -1 -1 -2 -2 -2 -2 -1 -0 -0 -1
Height
2926 2933 2938 2944 2953 2962 2962 2961 2967 2975 2980 2989 2994 2997 2996 3014 3015 3018 3020 3023 3027 3030 3031 3035 3039 3041 3043 3045 3048 3051 3052 3053 3054 3055 3057 3058 3059 3060 3061 3062 3061 3060 3058 3048
2914 2920 2927 2930 2940 2948 2950 2954 2961 2964 2970 2978 2986 2993 2999 3006 3011 3012 3015 3019 3022 3025 3028 3033 3035 3036 3039 3041 3045 3047 3047 3046 3049 3049 3052 3049 3049 3051 3053 3054 3055 3050 3052 3045
2908 2911 2918 2923 2930 2934 2939 2945 2949 2954 2961 2973 2981 2986 2991 2998 3003 3006 3009 3013 3017 3021 3022 3024 3030 3033 3034 3038 3040 3041 3042 3041 3042 3038 3040 3040 3041 3043 3044 3046 3044 3043 3039 3041
2897 2900 2908 2916 2924 2926 2925 2932 2938 2943 2950 2963 2972 2981 2985 2991 2996 2999 3005 3007 3010 3015 3017 3019 3023 3028 3030 3033 3036 3035 3036 3035 3038 3035 3036 3037 3038 3038 3038 3036 3037 3037 3033 3036
2888 2891 2896 2905 2915 2921 2920 2921 2930 2942 2949 2959 2967 2974 2978 2984 2990 2994 2998 3002 3006 3008 3010 3013 3017 3021 3023 3025 3028 3027 3028 3026 3030 3026 3031 3032 3031 3029 3028 3030 3028 3029 3030 3021
2880 2884 2890 2897 2905 2914 2912 2920 2931 2941 2946 2953 2962 2964 2969 2974 2983 2987 2992 2996 2999 3001 3004 3008 3011 3013 3015 3017 3019 3020 3021 3022 3024 3019 3024 3024 3021 3013 3017 3016 3020 3021 3018 3016
2871 2876 2882 2889 2897 2903 2910 2917 2926 2933 2938 2946 2949 2958 2965 2971 2978 2982 2986 2989 2992 2998 2998 3001 3003 3006 3008 3009 3010 3013 3014 3015 3018 3014 3016 3009 3003 3006 3006 3007 3009 3008 3009 3010
2864 2871 2877 2882 2890 2896 2905 2914 2921 2927 2935 2942 2948 2953 2957 2965 2971 2976 2981 2985 2989 2991 2995 2997 2998 2999 2999 2997 3000 3003 3006 3009 3009 3009 3004 3001 3000 2999 2999 2999 2997 3001 3000 3001
2860 2868 2875 2881 2886 2893 2905 2910 2919 2927 2931 2938 2943 2947 2952 2960 2966 2972 2974 2979 2983 2987 2989 2991 2992 2992 2992 2992 2990 2990 2995 2998 3003 3000 2997 2992 2989 2993 2992 2994 2988 2991 2992 2992
2855 2864 2872 2877 2885 2892 2901 2908 2917 2923 2926 2933 2939 2942 2948 2957 2963 2968 2970 2973 2977 2981 2982 2984 2986 2987 2987 2985 2986 2987 2988 2990 2989 2988 2988 2986 2984 2985 2986 2989 2987 2984 2985 2985
2857 2865 2872 2880 2887 2894 2901 2907 2914 2919 2924 2928 2933 2938 2946 2952 2959 2963 2967 2972 2971 2974 2977 2978 2979 2978 2980 2981 2980 2981 2983 2983 2978 2978 2979 2977 2977 2979 2981 2980 2979 2979 2978 2978
2860 2867 2874 2882 2888 2894 2900 2907 2910 2916 2922 2925 2929 2937 2942 2948 2952 2959 2961 2965 2965 2967 2970 2971 2972 2972 2972 2972 2971 2974 2974 2972 2974 2975 2971 2970 2971 2973 2974 2974 2975 2975 2974 2973
2863 2868 2874 2882 2889 2895 2901 2906 2911 2913 2918 2924 2928 2932 2940 2944 2950 2954 2957 2959 2962 2962 2964 2965 2965 2965 2965 2964 2964 2965 2964 2964 2965 2965 2962 2964 2967 2969 2969 2970 2970 2969 2969 2969
2867 2872 2878 2884 2890 2895 2901 2906 2909 2912 2917 2922 2925 2927 2930 2939 2945 2947 2950 2952 2955 2958 2959 2960 2959 2958 2958 2958 2958 2957 2960 2957 2957 2955 2958 2960 2961 2962 2963 2964 2963 2964 2965 2965
2866 2873 2879 2884 2890 2895 2901 2904 2907 2911 2918 2918 2919 2921 2925 2931 2937 2941 2943 2946 2949 2952 2953 2953 2954 2954 2954 2952 2952 2948 2949 2950 2952 2953 2953 2954 2955 2956 2957 2957 2958 2959 2960 2961
2865 2870 2876 2883 2889 2893 2898 2903 2907 2909 2913 2916 2917 2918 2920 2924 2930 2934 2937 2940 2943 2945 2947 2948 2948 2948 2952 2947 2945 2945 2945 2945 2946 2947 2948 2949 2950 2950 2951 2952 2953 2953 2954 2956
2863 2868 2873 2880 2887 2894 2899 2903 2905 2908 2911 2914 2917 2914 2916 2920 2925 2928 2930 2934 2936 2940 2941 2942 2944 2943 2943 2943 2943 2941 2941 2940 2941 2943 2944 2945 2946 2946 2947 2947 2949 2949 2950 2951
2864 2867 2873 2881 2888 2894 2898 2902 2904 2907 2910 2913 2914 2911 2911 2913 2915 2919 2923 2927 2930 2933 2936 2937 2940 2938 2939 2939 2938 2937 2937 2937 2938 2939 2940 2941 2941 2941 2941 2943 2944 2946 2947 2948
2865 2869 2876 2882 2888 2891 2896 2900 2902 2907 2912 2910 2909 2908 2906 2906 2910 2915 2920 2924 2927 2929 2931 2934 2936 2934 2935 2934 2935 2935 2934 2935 2935 2936 2937 2938 2938 2938 2937 2939 2941 2942 2944 2946
2869 2874 2879 2883 2887 2893 2897 2901 2902 2904 2904 2905 2903 2901 2901 2904 2906 2911 2917 2919 2922 2925 2929 2931 2931 2931 2930 2931 2932 2932 2932 2933 2933 2934 2935 2935 2935 2936 2936 2937 2938 2939 2942 2944
2873 2877 2882 2886 2889 2895 2898 2899 2900 2900 2899 2900 2900 2899 2901 2903 2906 2910 2914 2918 2921 2924 2926 2928 2927 2927 2926 2928 2929 2930 2930 2931 2931 2932 2932 2933 2933 2934 2934 2935 2936 2938 2940 2942
2878 2880 2883 2887 2892 2894 2895 2894 2896 2897 2898 2898 2900 2902 2904 2907 2909 2913 2917 2918 2921 2922 2922 2925 2923 2921 2922 2923 2926 2927 2928 2929 2929 2930 2930 2930 2931 2931 2932 2933 2934 2936 2938 2940
2881 2884 2887 2888 2891 2890 2891 2892 2894 2894 2895 2897 2900 2903 2907 2910 2912 2914 2916 2917 2918 2919 2920 2920 2918 2918 2919 2921 2923 2925 2926 2927 2927 2928 2928 2928 2928 2929 2930 2931 2932 2933 2935 2938
2884 2885 2887 2888 2888 2888 2889 2890 2893 2894 2895 2898 2902 2905 2908 2910 2912 2913 2914 2915 2916 2917 2917 2916 2915 2916 2917 2919 2921 2923 2924 2925 2926 2926 2926 2926 2926 2926 2927 2928 2929 2931 2933 2935
2886 2886 2887 2886 2886 2887 2888 2890 2892 2894 2896 2900 2904 2907 2909 2910 2912 2912 2912 2913 2913 2912 2912 2912 2913 2915 2917 2919 2920 2922 2923 2924 2924 2925 2925 2925 2925 2925 2926 2926 2928 2929 2930 2932
2888 2888 2887 2887 2888 2889 2890 2892 2894 2896 2899 2903 2906 2908 2909 2910 2910 2910 2910 2910 2910 2910 2910 2911 2912 2914 2916 2917 2919 2920 2921 2923 2923 2924 2925 2924 2924 2925 2925 2926 2926 2927 2928 2930
2887 2887 2887 2888 2889 2891 2892 2894 2895 2898 2902 2904 2906 2907 2907 2908 2908 2908 2907 2907 2908 2908 2909 2911 2912 2914 2915 2917 2918 2919 2920 2921 2922 2923 2924 2924 2924 2924 2925 2925 2925 2925 2926 2928